Tracking 19245 objects as of 21-Aug-2018
HD Live streaming from Space Station
objects crossing your sky now

CZ-4 R/B

Track CZ-4 R/B now!
10-day predictions
CZ-4 R/B is classified as:


NORAD ID: 29507
Int'l Code: 2006-046C
Perigee: 539.3 km
Apogee: 606.6 km
Inclination: 97.8 °
Period: 96.0 minutes
Semi major axis: 6943 km
RCS: 4.43 m2 (large)
Launch date: October 23, 2006
Source: People's Republic of China (PRC)
Launch site: Taiyaun Space Center, China (TSC)

Note: This is a ROCKET BODY
aabbcc
Your satellite tracking list
Your tracking list is empty




NASA's NSSDC Master Catalog

Two Line Element Set (TLE):
1 29507U 06046C   18232.47647238 -.00000695  00000-0 -48938-4 0  9994
2 29507  97.7855 245.3447 0048481 238.2369 121.4127 15.00349583645408
Source of the keplerian elements: AFSPC